Location: Brachstadt
(48.6975°N, 10.6755°E)
Time: 13:34:18
(UTC+00:00)

Envisat - Pass Details

Date: 05 December 2022
Orbit: 763 x 765 km, 98.2° (Epoch: 06 February)

Event Time Altitude Azimuth Distance (km) Brightness Sun altitude
Rises 16:03:53 0° 216° (SW) 3,221 7.5 -6.8°
Reaches altitude 10° 16:07:17 10° 241° (WSW) 2,301 7.3 -7.3°
Maximum altitude 16:09:59 14° 273° (W) 2,018 6.2 -7.7°
Drops below altitude 10° 16:12:42 10° 306° (NW) 2,311 5.9 -8.1°
Sets 16:16:10 0° 330° (NNW) 3,244 6.3 -8.6°
